COSMOS 2251 DEB, 33983

Orbit data source: Space-Track

COSMOS 2251 DEB, 33983 is space debris in LEO originally from a launch on Wed, 16 Jun 1993 UTC launched from the Plesetsk Missile And Space Complex (PKMTR). The debris from Iridium 33, an American commercial communications satellite, has been tracked extensively since its accidental collision with the defunct Russian satellite Cosmos 2251 in 2009. This event, occurring at high speed in low Earth orbit (LEO), generated thousands of pieces of space debris, significantly increasing the risk of further collisions. The Iridium 33 debris cloud has impacted space traffic management and orbital debris mitigation strategies, making it a subject of ongoing study in space situational awareness.

Loading next visibility...
Identifier
33983, 1993-036FS
Orbit
LEO
Country
Flag of CISCIS
Related business
Manufacturer
Unknown
Mission
Spacecraft
Bus & Motor
Unknown
Mass
Unknown
Launch date (UTC)
1993-06-16 (33 years ago)
Launch vehicle
Unknown
Launch site
Plesetsk Missile And Space Complex (PKMTR)
Object type
Payload
Rocket body
Debris
Shape & HBR
Unknown shape, 0.2 m
Radar Cross Section
Small (<0.1 m²)

Expand to show TLE details & history
Last TLE update: 18 hours ago

TLE from 18 hours ago
0 COSMOS 2251 DEB
1 33983U 93036FS  25354.82220399  .00001385  00000-0  35842-3 0  9993
2 33983  74.0493 131.8649 0021225 234.0620 238.2815 14.50699999887469
Epoch: 2025-12-20T19:43Z
TLE epoch observation values (Epoch: 2025-12-20T19:43:58.424Z)
Latitude
63.05396°
Longitude
-107.77558°
Altitude
741.794 km
Speed
7.486 km/s
True Right ascension
18h 31m 26s
True Declination
62° 54' 52"
Sunlit
Object was in daylight at epoch
Visualization orbit readout
Latitude
Unknown
Longitude
Unknown
Altitude
Unknown
Speed
Unknown
Apparent Right ascension
Unknown
Apparent Declination
Unknown
Sunlit
N/A
Visualization observer readout
Local Sidereal Time
12:54:25
Azimuth
Unknown
Elevation
Unknown
Doppler factor
Unknown
Orbital elements
Apogee altitude
736.038 km
Perigee altitude
705.902 km
Semi-major axis
7,099.107 km
Eccentricity
0.00212
Inclination
74.0493°
RAAN
131.8649°
Arg. of periapsis
234.062°
True anomaly
238.0749°
Mean anomaly
238.2815°
Eccentric anomaly
238.17817°
Mean motion
3.62859 °/min
Orbital period
99.21 mins
BSTAR
0.00035842
Loading maneuver chart data...
Computing Atmospheric mass density...
Loading historical data...
Loading historical data...
Loading historical data...
Loading historical data...
Loading historical data...
Loading historical data...
Loading historical data...

Documentation

Showing up to 5 results
|